Regional Weather Roundup
Issued by NWS

Home | Current Version | Previous Version | Graphics & Text | Print | Product List | Glossary On
Versions: 1 2 3 4 5 6 7 8 9 10 11 12 13 14 15 16 17 18 19 20 21 22 23 24 25 26 27 28 29 30 31 32 33 34 35 36 37 38 39 40 41 42 43 44 45 46 47 48 49 50
000
ASUS43 KTOP 220459
RWRKS

WEATHER ROUNDUP FOR KANSAS
NATIONAL WEATHER SERVICE GOODLAND KS
1200 AM CDT WED OCT 22 2014

NOTE:  "FAIR" INDICATES FEW OR NO CLOUDS BELOW 12,000 FEET WITH NO
SIGNIFICANT WEATHER AND/OR OBSTRUCTIONS TO VISIBILITY.

KSZ001>006-013>018-027>032-041>047-220600-
NORTHWEST KANSAS

CITY           SKY/WX    TMP DP  RH WIND       PRES   REMARKS
GOODLAND       CLEAR     57  47  69 S12       29.96S
HAYS           PTCLDY    64  52  63 S16       29.98S
HILL CITY      PTCLDY    65  53  65 S10       29.97R
RUSSELL        PTCLDY    64  56  75 S13       29.97F
$$

KSZ061>065-074>080-084>089-220600-
SOUTHWEST KANSAS

CITY           SKY/WX    TMP DP  RH WIND       PRES   REMARKS
DODGE CITY     CLEAR     63  51  65 S15       30.02S
ELKHART          N/A     57  43  59 S12         N/A
GARDEN CITY    CLEAR     61  51  70 S15       30.00S
GREAT BEND     CLEAR     63  54  72 S13       30.00S
LIBERAL        CLEAR     61  46  59 S13       30.04S
$$

KSZ066>073-081>083-090>101-220600-
SOUTHEAST KANSAS

CITY           SKY/WX    TMP DP  RH WIND       PRES   REMARKS
CHANUTE        CLEAR     59  50  72 SE8       30.09S
COFFEYVILLE    CLEAR     61  54  77 SE3       30.08S
HUTCHINSON     CLEAR     64  58  80 SE10      30.03F
NEWTON         CLEAR     61  52  72 SE9       30.07S
PARSONS        CLEAR     62  50  64 CALM      30.09F
WICHITA INTL   CLEAR     66  60  81 SE10      30.04F
WICHITA JABRA  CLEAR     63  58  83 SE8       30.05S
WINFIELD       CLEAR     65  61  87 SE6       30.07S
$$

KSZ007>012-019>026-033>040-048>060-102>105-220600-
NORTHEAST KANSAS

CITY           SKY/WX    TMP DP  RH WIND       PRES   REMARKS
CONCORDIA      CLEAR     63  56  78 SE14      30.01S
EMPORIA        CLEAR     58  52  80 SE6       30.08R
LAWRENCE       CLEAR     50  43  77 E3        30.11R
MANHATTAN      CLEAR     62  54  74 CALM      30.05S
OLATHE IND     CLEAR     57  45  64 SE6       30.12R
OLATHE EXE     CLEAR     57  44  62 SE6       30.11S
SALINA         CLEAR     65  57  75 S12       30.02S
TOPEKA BILLARD CLEAR     57  47  69 E7        30.09S
TOPEKA FORBES  CLEAR     56  45  66 SE6       30.09R
$$



USA.gov is the U.S. government's official web portal to all federal, state and local government web resources and services.